< < Back
Terminal Aerodrome Forecast


Current Version              Previous Versions:   1  2  3  4  5  6  7  8  9  

Terminal Aerodrome Forecast

690
FTUS44 KOHX 292300
TAFCSV
TAF
KCSV 292332Z 3000/3024 32005KT P6SM SKC
     FM301000 00000KT 6SM BR SKC
      TEMPO 3010/3012 4SM BR
     FM301330 35004KT P6SM SKC=



Latest METAR

049
SAUS70 KWBC 301900 RRM
MTRCSV
METAR KCSV 301853Z AUTO 34004KT 10SM CLR 15/02 A3005 RMK AO2 SLP171
T01500017


USA.gov is the U.S. government's official web portal to all federal, state and local government web resources and services.